Weather in Rovnoe

Russia / Saratov Oblast     50°46′29″N   46°03′13″E
temp.,
°C
wind,
m/s
gust,
m/s
humid.,
%
clouds,
%
prec.,
mm/h
press.,
hPa
HPBL,
m
17 june, thu
thu1701:00+19wnw34860 0.0 101232
04:00+18nw44840 0.0 101345
07:00+18n58882 0.0 1013157
10:00+21nne68770 0.0 1015303
13:00+23nne79665 0.0 1016508
16:00+23nne795829 0.0 1017509
19:00+22nne811617 0.0 1018310
22:00+18ne47740 0.0 1020123
18 june, fri
fri1801:00+16nne48740 0.0 1020133
04:00+16ne611770 0.0 1021210
07:00+16ne59770 0.0 1022254
10:00+20ne79620 0.0 1023421
13:00+21ne78540 0.0 1023600
16:00+22ne79540 0.0 1023619
19:00+20ne710600 0.0 1024343
22:00+17ne611670 0.0 1025202
19 june, sat
sat1901:00+15ne49720 0.0 1026179
04:00+14ne47730 0.0 1027167
07:00+15ne58724 0.0 1028259
10:00+18ene56615 0.0 1028380
13:00+21ne45535 0.0 1027483
16:00+22ne44500 0.0 1025516
19:00+22ne45570 0.0 1024135
22:00+19ne44690 0.0 102530
20 june, sun
sun2001:00+17ne33730 0.0 102533
04:00+16ne33770 0.0 102533
07:00+17nne34760 0.0 102589
10:00+21ne34630 0.0 1025266
13:00+24ene34530 0.0 1024456
16:00+25ne33490 0.0 1023536
19:00+25ne34550 0.0 102266
22:00+21nne336511 0.0 102214
21 june, mon
mon2101:00+20ne3370100 0.0 102217
04:00+19ne227369 0.0 102212
07:00+19nne23785 0.0 102257
10:00+23ene23680 0.0 1022291
13:00+25ne23590 0.0 1021621
16:00+27nne33530 0.0 1020725
19:00+26n45630 0.0 102097
22:00+23nne447527 0.0 102034